Regional Weather Roundup
Issued by NWS

Home | Current Version | Previous Version | Graphics & Text | Print | Product List | Glossary On
Versions: 1 2 3 4 5 6 7 8 9 10 11 12 13 14 15 16 17 18 19 20 21 22 23 24 25 26 27 28 29 30 31 32 33 34 35 36 37 38 39 40 41 42 43 44 45 46 47 48 49 50
000
ASUS43 KMKX 021148
RWRWI

WISCONSIN REGIONAL WEATHER ROUNDUP
NATIONAL WEATHER SERVICE MILWAUKEE/SULLIVAN WI
700 AM CDT TUE JUN 02 2015

NOTE: "FAIR" INDICATES FEW OR NO CLOUDS BELOW 12,000 FEET WITH NO
SIGNIFICANT WEATHER AND/OR OBSTRUCTIONS TO VISIBILITY.

WIZ001-002-006>008-014>016-023>028-021300-
NORTHWEST WISCONSIN

CITY           SKY/WX    TMP DP  RH WIND       PRES   REMARKS
SUPERIOR ARPT  MOSUNNY   41  37  87 NE5       30.10S
ASHLAND        CLOUDY    45  42  89 SW3       30.13S
HAYWARD        CLOUDY    51  37  58 S6        30.13S
SIREN          SUNNY     50  39  66 S8        30.10S
CUMBERLAND     SUNNY     45  37  76 SE6       30.13S
RICE LAKE      SUNNY     49  39  68 SE6       30.16R
CHETEK         SUNNY     47  40  77 E6        30.15S
LADYSMITH      SUNNY     45  39  79 SE5       30.18R
EAU CLAIRE     MOSUNNY   48  37  65 SE3       30.15R
MENOMONIE      MOSUNNY   47  40  77 E6        30.14S
NEW RICHMOND   PTSUNNY   51  40  66 SE7       30.11S
OSCEOLA        MOSUNNY   50  42  74 SE7       30.13S
$$

WIZ003>005-009-010-017-018-021300-
NORTH CENTRAL WISCONSIN

CITY           SKY/WX    TMP DP  RH WIND       PRES   REMARKS
MANITOWISH WTR SUNNY     43  39  85 S5        30.18R
ARBOR VITAE    SUNNY     46  39  75 S3        30.18S
WOODRUFF       SUNNY     46  39  75 S3        30.18S
RHINELANDER    SUNNY     39  35  86 CALM      30.20S
EAGLE RIVER    SUNNY     36  36 100 CALM      30.20R
LAND O LAKES   SUNNY     34  34 100 CALM      30.20S
PHILLIPS       SUNNY     46  38  74 S3        30.16S
TOMAHAWK       SUNNY     34  33  96 CALM      30.19S
MEDFORD        SUNNY     44  37  76 S3        30.18R
MERRILL        SUNNY     36  35  99 CALM      30.20S
$$

WIZ029-030-035-036-043>047-021300-
CENTRAL WISCONSIN

CITY           SKY/WX    TMP DP  RH WIND       PRES   REMARKS
WAUSAU         SUNNY     41  38  89 E5        30.18F
MOSINEE        SUNNY     39  37  93 SE3       30.19F
MARSHFIELD     SUNNY     43  36  76 CALM      30.18F
STEVENS POINT  SUNNY     35  34  95 CALM      30.20F
WAUPACA        MOSUNNY   41  40  97 CALM      30.21S
WAUTOMA        SUNNY     38  37  96 CALM      30.21S
WISC RAPIDS    SUNNY     42  36  79 SE3       30.20F
CAMP DOUGLAS   SUNNY     37  37 100 CALM      30.19R FOG
$$

WIZ011>013-019>022-031-037>040-048>050-021300-
NORTHEAST WISCONSIN

CITY           SKY/WX    TMP DP  RH WIND       PRES   REMARKS
ANTIGO         SUNNY     39  36  91 CALM      30.20S
SHAWANO        SUNNY     41  40  95 CALM      30.21S
OCONTO         SUNNY     37  37 100 CALM      30.21R
STURGEON BAY   SUNNY     41  36  81 CALM      30.24R
GREEN BAY      SUNNY     42  40  92 CALM      30.21S
MANITOWOC      SUNNY     41  39  93 CALM      30.22R
APPLETON       MOSUNNY   43  36  75 VRB3      30.20F
CLINTONVILLE   SUNNY     41  37  87 CALM      30.21S
OSHKOSH        MOSUNNY   42  38  85 CALM      30.20R
$$

WIZ032>034-041-042-053>061-021300-
SOUTHWEST WISCONSIN

CITY           SKY/WX    TMP DP  RH WIND       PRES   REMARKS
LA CROSSE      SUNNY     51  39  63 SE7       30.17R
SPARTA         SUNNY     37  35  94 CALM      30.18S
VIROQUA        SUNNY     45  37  75 SE8       30.18S
BOSCOBEL       MOSUNNY   43  40  89 CALM      30.20R
PRAIRIE DU CHI MOSUNNY   48  39  71 SE3       30.18R
PLATTEVILLE    SUNNY     45  39  82 E8        30.18S
$$

WIZ056-057-062-063-064-067-068-021300-
SOUTH CENTRAL WISCONSIN

CITY           SKY/WX    TMP DP  RH WIND       PRES   REMARKS
REEDSBURG      SUNNY     38  37  97 CALM      30.19F
BARABOO/DELLS  SUNNY     41  35  79 SE3       30.19F
LONE ROCK      MOSUNNY   42  39  89 CALM      30.21R
MINERAL POINT  MOSUNNY   45  37  76 SE6       30.19S
MADISON        PTSUNNY   40  36  86 CALM      30.21R
MIDDLETON      FAIR      41  40  94 CALM      30.21R
WATERTOWN      SUNNY     39  39 100 CALM      30.21R
MONROE         MOSUNNY   45  36  70 CALM      30.19S
JANESVILLE     PTSUNNY   43  39  87 CALM      30.19R
$$

WIZ051-052-058>065-066-070>072-021300-
SOUTHEAST WISCONSIN

CITY           SKY/WX    TMP DP  RH WIND       PRES   REMARKS
MILWAUKEE      MOSUNNY   44  36  73 CALM      30.21R
WAUKESHA       SUNNY     37  34  87 CALM      30.22R
MILWAUKEE/TIMM SUNNY     37  34  87 CALM      30.22R
RACINE         SUNNY     41  38  89 NW3       30.22R
BURLINGTON     SUNNY     34  33  98 CALM      30.20R
KENOSHA          N/A     41  37  86 CALM      30.20R
FOND DU LAC    MOSUNNY   41  39  93 CALM      30.21R
SHEBOYGAN      SUNNY     40  38  93 CALM      30.22R
WEST BEND      SUNNY     37  36  93 CALM      30.22R
JUNEAU         MOSUNNY   40  38  90 CALM      30.22R
$$

LSZ147-162-021300-
LAKE SUPERIOR

STATION/POSITION TIME  TEMP    WIND        PRES    WAVE
                       AIR SEA DIR/SP/G            HT/PER
                 (UTC) (F)     (DEG/KT/KT) (MB)    (FT/S)
W MID LAKE BUOY  1050   41 37  120/  8/  8   N/A     1
DEVILS ISLAND    1100   51     180/  8/ 10   N/A
PORT WING        0900   42     180/  2/  3   N/A
$$

LMZ867-665-643>646-021300-
LAKE MICHIGAN

STATION/POSITION TIME  TEMP    WIND        PRES    WAVE
                       AIR SEA DIR/SP/G            HT/PER
                 (UTC) (F)     (DEG/KT/KT) (MB)    (FT/S)
CHAMBERS ISLAND  1000   39      CALM  /  1   N/A
N MID LAKE BUOY  1050   43 37  200/  6/  6   N/A     0
NORTHPORT PIER   1100   49      CALM  / 12   N/A
SISTER BAY       0903   46     150/  8/ 12   N/A
ALGOMA LAKESHORE 1039             CALM       N/A
KEWAUNEE LAKESHO 1100   40      CALM  /  3   N/A
SHEBOYGAN LAKESH 1100   47     310/  1/  1   N/A
PORT WASHINGTON  0840   44     290/  3/  4   N/A
ATWATER BUOY     1100   46     340/  4/  6   N/A
MILWAUKEE LAKESH 1100   47     340/  3/  4   N/A
S MID LAKE BUOY  1050   42 38   70/  6/  6   N/A     1
KENOSHA   LAKESH 1100   46     340/  4/  5   N/A
$$

TC  - TEMPERATURE IN CELSIUS
VSB - VISIBILITY IN STATUTE MILES
WCI - WIND CHILL INDEX
HX  - HEAT INDEX



USA.gov is the U.S. government's official web portal to all federal, state and local government web resources and services.